Weather History for Ft. Stewart, GA

Change the Weather History Date:

Wednesday, January 29, 2014

  Actual Average Record
Temperature  
Mean Temperature 31 °F -  
Max Temperature 33 °F 65 °F 85 °F (1975)
Min Temperature 28 °F 39 °F 25 °F (1965)
Degree Days  
Heating Degree Days 34    
Moisture  
Dew Point 31 °F    
Average Humidity 98    
Maximum Humidity 100    
Minimum Humidity 92    
Precipitation  
Precipitation 0.23 in - - ()
Sea Level Pressure  
Sea Level Pressure 30.24 in    
Wind  
Wind Speed 8 mph (North)    
Max Wind Speed 13 mph    
Max Gust Speed -    
Visibility 10 miles    
Events Rain , Snow    
Averages and records for this station are not official NWS values.
T = Trace of Precipitation, MM = Missing Value Source: NWS Daily Summary

Daily Weather History Graph

Daily Weather History Graph

Search for Another Location

Airport:

Trip Planner

Search our weather history database for the weather conditions in past years. The results will help you decide how hot, cold, wet, or windy it might be!

Date:

Astronomy

Jan. 29, 2014 Rise Set
Actual Time 7:21 AM EST 5:57 PM EST
Civil Twilight 6:55 AM EST 6:23 PM EST
Nautical Twilight 6:26 AM EST 6:52 PM EST
Astronomical Twilight 5:57 AM EST 7:21 PM EST
Moon 5:56 AM EST (1/29) 4:55 PM EST (1/29)
Length of Visible Light 11h 27m
Length of Day
10h 36m
Waning Crescent, 2% of the Moon is Illuminated
Jan 29
Waning Crescent
Jan 30
New
Feb 6
First Quarter
Feb 14
Full
Feb 22
Last Quarter

Hourly Weather History & Observations

Time (EST) Temp. Windchill Dew Point Humidity Pressure Visibility Wind Dir Wind Speed Gust Speed Precip Events Conditions
12:23 AM 32.0 °F 24.2 °F 32.0 °F 100% 30.12 in 9.0 mi NNW 9.2 mph - N/A Rain Light Rain
12:53 AM 32.0 °F 24.2 °F 32.0 °F 100% 30.12 in 10.0 mi North 9.2 mph - N/A Rain Light Rain
12:58 AM 32.7 °F 24.5 °F 32.7 °F 100% 30.13 in 10.0 mi North 10.4 mph - 0.02 in Rain Light Rain
1:38 AM 32.0 °F 26.4 °F 32.0 °F 100% 30.13 in 10.0 mi NNW 5.8 mph - N/A Rain Light Rain
1:43 AM 32.0 °F 26.4 °F 32.0 °F 100% 30.13 in 10.0 mi North 5.8 mph - N/A Rain Light Rain
1:48 AM 32.0 °F 24.8 °F 32.0 °F 100% 30.13 in 10.0 mi North 8.1 mph - N/A Rain Light Rain
1:58 AM 32.9 °F 25.9 °F 32.9 °F 100% 30.14 in 10.0 mi North 8.1 mph - 0.01 in Rain Light Rain
2:03 AM 32.0 °F 25.6 °F 32.0 °F 100% 30.12 in 10.0 mi North 6.9 mph - N/A Rain Rain
2:33 AM 32.0 °F 25.6 °F 32.0 °F 100% 30.11 in 10.0 mi North 6.9 mph - N/A   Overcast
2:50 AM 32.0 °F 26.4 °F 32.0 °F 100% 30.13 in 10.0 mi NNW 5.8 mph - N/A Rain Light Rain
2:58 AM 33.1 °F 26.9 °F 33.1 °F 100% 30.12 in 10.0 mi North 6.9 mph - 0.00 in Rain Light Rain
3:08 AM 32.0 °F 24.8 °F 32.0 °F 100% 30.12 in 10.0 mi North 8.1 mph - N/A   Overcast
3:24 AM 32.0 °F 24.8 °F 32.0 °F 100% 30.12 in 10.0 mi North 8.1 mph - N/A Rain Light Rain
3:39 AM 32.0 °F 24.2 °F 32.0 °F 100% 30.12 in 10.0 mi NNW 9.2 mph - N/A Rain Light Rain
3:58 AM 33.3 °F 27.9 °F 33.3 °F 100% 30.14 in 10.0 mi NNW 5.8 mph - 0.01 in Rain Light Rain
4:08 AM 32.0 °F 23.6 °F 32.0 °F 100% 30.13 in 10.0 mi NNW 10.4 mph - N/A Rain Light Rain
4:58 AM 32.9 °F 25.9 °F 32.5 °F 99% 30.18 in 10.0 mi NNW 8.1 mph - 0.01 in Rain Light Rain
5:25 AM 32.0 °F 23.0 °F 32.0 °F 100% 30.14 in 10.0 mi NNW 11.5 mph - N/A   Overcast
5:31 AM 32.0 °F 23.6 °F 32.0 °F 100% 30.15 in 10.0 mi North 10.4 mph - N/A Rain Light Rain
5:53 AM 32.0 °F 25.6 °F 32.0 °F 100% 30.17 in 10.0 mi NNW 6.9 mph - N/A Rain Light Freezing Rain
5:58 AM 32.0 °F 27.5 °F 31.8 °F 99% 30.17 in 10.0 mi NNW 4.6 mph - 0.03 in Rain Light Freezing Rain
6:15 AM 32.0 °F 24.2 °F 32.0 °F 100% 30.17 in 10.0 mi NNW 9.2 mph - N/A Rain Light Rain
6:30 AM 32.0 °F 24.8 °F 32.0 °F 100% 30.20 in 9.0 mi NW 8.1 mph - N/A   Overcast
6:40 AM 32.0 °F 22.5 °F 32.0 °F 100% 30.21 in 10.0 mi NNW 12.7 mph - N/A   Overcast
6:45 AM 32.0 °F 23.6 °F 32.0 °F 100% 30.20 in 10.0 mi NNW 10.4 mph - N/A   Overcast
6:50 AM 32.0 °F 23.6 °F 32.0 °F 100% 30.21 in 10.0 mi NNW 10.4 mph - N/A   Overcast
6:55 AM 32.0 °F 24.8 °F 32.0 °F 100% 30.21 in 10.0 mi NNW 8.1 mph - N/A   Overcast
6:58 AM 31.5 °F 24.2 °F 31.3 °F 99% 30.22 in 10.0 mi NNW 8.1 mph - 0.04 in   Overcast
7:18 AM 32.0 °F 25.6 °F 32.0 °F 100% 30.19 in 10.0 mi North 6.9 mph - N/A   Overcast
7:21 AM 32.0 °F 24.8 °F 32.0 °F 100% 30.20 in 9.0 mi North 8.1 mph - N/A Rain Light Freezing Rain
7:23 AM 32.0 °F 26.4 °F 32.0 °F 100% 30.20 in 9.0 mi NNW 5.8 mph - N/A Rain Light Freezing Rain
7:30 AM 32.0 °F 25.6 °F 32.0 °F 100% 30.20 in 9.0 mi North 6.9 mph - N/A Rain Light Freezing Rain
7:55 AM 32.0 °F 25.6 °F 32.0 °F 100% 30.24 in 9.0 mi NNW 6.9 mph - N/A Rain Light Freezing Rain
7:58 AM 31.1 °F 24.5 °F 30.9 °F 99% 30.25 in 9.0 mi NNW 6.9 mph - 0.07 in Rain Light Freezing Rain
7:59 AM 32.0 °F 24.8 °F 32.0 °F 100% 30.23 in 9.0 mi NNW 8.1 mph - N/A Rain Light Freezing Rain
8:00 AM 32.0 °F 24.8 °F 32.0 °F 100% 30.23 in 10.0 mi NNW 8.1 mph - N/A Rain Light Freezing Rain
8:05 AM 32.0 °F 26.4 °F 32.0 °F 100% 30.22 in 10.0 mi North 5.8 mph - N/A Rain Light Freezing Rain
8:10 AM 32.0 °F 27.5 °F 32.0 °F 100% 30.23 in 10.0 mi NNW 4.6 mph - N/A Rain Light Freezing Rain
8:13 AM 32.0 °F 27.5 °F 32.0 °F 100% 30.23 in 10.0 mi North 4.6 mph - N/A Rain Light Freezing Rain
8:28 AM 32.0 °F 24.8 °F 32.0 °F 100% 30.23 in 10.0 mi North 8.1 mph - N/A Rain Light Freezing Rain
8:30 AM 32.0 °F 24.8 °F 32.0 °F 100% 30.22 in 10.0 mi North 8.1 mph - N/A Rain Light Freezing Rain
8:35 AM 32.0 °F 25.6 °F 32.0 °F 100% 30.22 in 10.0 mi North 6.9 mph - N/A Rain Light Freezing Rain
8:45 AM 32.0 °F 25.6 °F 32.0 °F 100% 30.25 in 10.0 mi North 6.9 mph - N/A Rain Light Freezing Rain
8:52 AM 32.0 °F 27.5 °F 32.0 °F 100% 30.24 in 10.0 mi North 4.6 mph - N/A Rain Light Freezing Rain
8:55 AM 32.0 °F 27.5 °F 32.0 °F 100% 30.24 in 10.0 mi North 4.6 mph - N/A   Overcast
8:58 AM 32.0 °F 26.4 °F 32.0 °F 100% 30.26 in 10.0 mi North 5.8 mph - 0.04 in   Overcast
9:07 AM 32.0 °F 25.6 °F 32.0 °F 100% 30.25 in 10.0 mi North 6.9 mph - N/A   Mostly Cloudy
9:09 AM 32.0 °F 25.6 °F 32.0 °F 100% 30.24 in 10.0 mi North 6.9 mph - N/A   Mostly Cloudy
9:14 AM 32.0 °F 28.7 °F 32.0 °F 100% 30.25 in 10.0 mi North 3.5 mph - N/A   Mostly Cloudy
9:24 AM 32.0 °F 26.4 °F 32.0 °F 100% 30.25 in 10.0 mi North 5.8 mph - N/A   Mostly Cloudy
9:29 AM 32.0 °F 26.4 °F 32.0 °F 100% 30.27 in 10.0 mi NNW 5.8 mph - N/A   Mostly Cloudy
9:48 AM 32.0 °F 26.4 °F 32.0 °F 100% 30.30 in 10.0 mi NW 5.8 mph - N/A   Overcast
9:58 AM 30.6 °F 25.8 °F 30.4 °F 99% 30.31 in 10.0 mi NW 4.6 mph - 0.00 in   Overcast
10:39 AM 32.0 °F 24.8 °F 32.0 °F 100% 30.30 in 10.0 mi NNW 8.1 mph - N/A   Overcast
10:49 AM 32.0 °F 24.8 °F 32.0 °F 100% 30.31 in 10.0 mi NNW 8.1 mph - N/A   Overcast
10:58 AM 30.9 °F 25.2 °F 30.7 °F 99% 30.32 in 10.0 mi North 5.8 mph - 0.00 in   Overcast
11:58 AM 32.0 °F 26.4 °F 32.0 °F 100% 30.31 in 10.0 mi North 5.8 mph - N/A   Mostly Cloudy
12:08 PM 32.0 °F 24.8 °F 32.0 °F 100% 30.29 in 10.0 mi North 8.1 mph - N/A   Mostly Cloudy
12:18 PM 32.0 °F 24.8 °F 32.0 °F 100% 30.29 in 10.0 mi North 8.1 mph - N/A   Overcast
12:28 PM 32.0 °F 23.6 °F 32.0 °F 100% 30.30 in 10.0 mi NNW 10.4 mph - N/A   Overcast
12:58 PM 31.3 °F 24.7 °F 30.7 °F 98% 30.29 in 10.0 mi North 6.9 mph - N/A   Overcast
1:58 PM 31.1 °F 25.4 °F 30.0 °F 96% 30.30 in 10.0 mi North 5.8 mph - N/A   Overcast
2:33 PM 32.0 °F 24.8 °F 30.2 °F 93% 30.27 in 10.0 mi NNE 8.1 mph - N/A   Overcast
2:58 PM 30.7 °F 23.3 °F 29.8 °F 96% 30.27 in 10.0 mi NNE 8.1 mph - N/A   Overcast
3:58 PM 30.7 °F 24.9 °F 30.0 °F 97% 30.29 in 10.0 mi NNE 5.8 mph - N/A   Overcast
4:33 PM 32.0 °F 27.5 °F 30.2 °F 93% 30.29 in 10.0 mi NNE 4.6 mph - N/A Snow Light Snow
4:43 PM 32.0 °F 27.5 °F 30.2 °F 93% 30.29 in 10.0 mi NE 4.6 mph - N/A   Mostly Cloudy
4:48 PM 32.0 °F 26.4 °F 30.2 °F 93% 30.28 in 10.0 mi NNE 5.8 mph - N/A   Scattered Clouds
4:53 PM 32.0 °F 26.4 °F 30.2 °F 93% 30.30 in 10.0 mi Variable 5.8 mph - N/A   Mostly Cloudy
4:58 PM 30.6 °F 23.1 °F 29.8 °F 97% 30.31 in 10.0 mi North 8.1 mph - 0.00 in   Mostly Cloudy
5:48 PM 32.0 °F 24.2 °F 30.2 °F 93% 30.29 in 10.0 mi North 9.2 mph - N/A   Mostly Cloudy
5:58 PM 30.2 °F 23.4 °F 29.7 °F 98% 30.30 in 10.0 mi NNE 6.9 mph - N/A   Mostly Cloudy
6:03 PM 30.2 °F 22.6 °F 30.2 °F 100% 30.28 in 10.0 mi NNE 8.1 mph - N/A   Mostly Cloudy
6:18 PM 30.2 °F 23.4 °F 30.2 °F 100% 30.30 in 10.0 mi North 6.9 mph - N/A   Mostly Cloudy
6:23 PM 30.2 °F 24.3 °F 30.2 °F 100% 30.31 in 10.0 mi North 5.8 mph - N/A   Mostly Cloudy
6:48 PM 30.2 °F 22.6 °F 30.2 °F 100% 30.31 in 10.0 mi NNE 8.1 mph - N/A   Overcast
6:58 PM 29.8 °F 22.2 °F 29.1 °F 97% 30.32 in 10.0 mi North 8.1 mph - N/A   Mostly Cloudy
7:03 PM 30.2 °F 23.4 °F 28.4 °F 93% 30.31 in 10.0 mi North 6.9 mph - N/A   Mostly Cloudy
7:58 PM 29.8 °F 23.9 °F 29.1 °F 97% 30.35 in 10.0 mi North 5.8 mph - N/A   Mostly Cloudy
8:28 PM 30.2 °F 24.3 °F 28.4 °F 93% 30.31 in 10.0 mi North 5.8 mph - N/A   Mostly Cloudy
8:38 PM 30.2 °F 23.4 °F 30.2 °F 100% 30.33 in 10.0 mi North 6.9 mph - N/A   Scattered Clouds
8:58 PM 29.8 °F 23.9 °F 29.3 °F 98% 30.32 in 10.0 mi ENE 5.8 mph - N/A   Scattered Clouds
8:59 PM 30.2 °F 22.6 °F 28.4 °F 93% 30.30 in 10.0 mi ENE 8.1 mph - N/A   Mostly Cloudy
9:15 PM 30.2 °F 24.3 °F 28.4 °F 93% 30.32 in 10.0 mi North 5.8 mph - N/A   Overcast
9:30 PM 30.2 °F 23.4 °F 28.4 °F 93% 30.34 in 10.0 mi North 6.9 mph - N/A   Overcast
9:55 PM 30.2 °F 23.4 °F 28.4 °F 93% 30.32 in 10.0 mi NNE 6.9 mph - N/A   Overcast
9:58 PM 30.2 °F 22.6 °F 28.4 °F 93% 30.33 in 10.0 mi NNE 8.1 mph - 0.00 in   Overcast
10:03 PM 30.2 °F 21.9 °F 28.4 °F 93% 30.31 in 10.0 mi NNE 9.2 mph - N/A   Overcast
10:58 PM 29.3 °F 24.3 °F 27.1 °F 92% 30.34 in 10.0 mi NE 4.6 mph - N/A   Overcast
11:58 PM 28.9 °F 22.8 °F 27.9 °F 96% 30.34 in 10.0 mi North 5.8 mph - N/A   Overcast